Regional Weather Roundup
Issued by NWS Albany, NY

Home | Current Version | Previous Version | Graphics & Text | Print | Product List | Glossary Off
Versions: 1 2 3 4 5 6 7 8 9 10 11 12 13 14 15 16 17 18 19 20 21 22 23 24 25 26 27 28 29 30 31 32 33 34 35 36 37 38 39 40 41 42 43 44 45 46 47 48 49 50

782
ASUS41 KALY 230310
RWRALY

NEW YORK STATE HOURLY WEATHER ROUNDUP
NATIONAL WEATHER SERVICE ALBANY NY
1100 PM EDT SUN APR 22 2018

NOTE: "FAIR" INDICATES FEW OR NO CLOUDS BELOW 12,000 FEET WITH NO
SIGNIFICANT WEATHER AND/OR NO OBSTRUCTIONS TO VISIBILITY.

NYZ032-033-038>043-046>054-057>066-NYZ062>081-082-084-230400-
EAST


CITY           SKY/WX    TMP DP  RH WIND       PRES   REMARKS
ALBANY         FAIR      46  18  32 N7        30.40R
GLENS FALLS    FAIR      42  22  44 N3        30.40S
POUGHKEEPSIE   FAIR      42  23  46 E3        30.37S
NEWBURGH       CLEAR     48  21  34 CALM      30.39R
MONTGOMERY     FAIR      42  28  57 CALM      30.37S
WHITE PLAINS   FAIR      45  30  55 CALM      30.38S
ISLIP          FAIR      45  32  60 CALM      30.39S
NEW YORK CITY  FAIR      52  28  39 S6        30.38R
CENTRAL PARK   FAIR      52  27  38 CALM      30.41R
$$

NYZ005>009-017-018-044>046-055-056-230400-
CENTRAL


CITY           SKY/WX    TMP DP  RH WIND       PRES   REMARKS
FULTON         FAIR      36  25  64 CALM      30.41S
SYRACUSE       FAIR      41  30  65 SE3       30.41S
ROME           FAIR      37  24  59 CALM      30.42S
ELMIRA         FAIR      38  25  59 CALM      30.40F
BINGHAMTON     FAIR      43  15  32 N8        30.38F
MONTICELLO     FAIR      44  16  32 NW5       30.39S
$$

NYZ026>034-041>043-087-230400-
NORTH


CITY           SKY/WX    TMP DP  RH WIND       PRES   REMARKS
WATERTOWN      FAIR      30  25  81 CALM      30.42S
FORT DRUM      NOT AVBL
OGDENSBURG     FAIR      37  31  79 CALM      30.41S
MASSENA        FAIR      32  25  75 CALM      30.41S
SARANAC LAKE   FAIR      25  19  78 CALM      30.38S
PLATTSBURGH    FAIR      35  27  72 CALM      30.40S
$$

NYZ001>004-010>016-019>021-085-230400-
WEST


CITY           SKY/WX    TMP DP  RH WIND       PRES   REMARKS
NIAGARA FALLS  FAIR      46  24  42 SE7       30.38F
BUFFALO        FAIR      50  22  33 E5        30.38F
DUNKIRK        FAIR      48  25  40 E8        30.37S
JAMESTOWN      FAIR      49  20  31 E8        30.35S
WELLSVILLE     FAIR      46  18  32 E5        30.39F
ROCHESTER      FAIR      46  26  45 CALM      30.41S
PENN YAN       FAIR      33  24  69 CALM      30.41S
$$

             KEY
       WCI = WIND CHILL INDEX
       VSB = VISIBILITY
       HX  = HEAT INDEX
$$




USA.gov is the U.S. government's official web portal to all federal, state and local government web resources and services.